Home   Weather   Wegberg   Past weeks

Flag for Germany Past Weather in Wegberg, North Rhine-Westphalia, Germany — Yesterday and Last 2 Weeks

Now
57 °F

Passing clouds.


Feels Like: 55 °F
Forecast: 59 / 73 °F
Wind: 8 mph from West

Location: Geilenkirchen Airport

Current Time: Jul 25, 2017 at 4:58:11 am

Latest Report: Jul 25, 2017 at 3:50 am


Visibility: N/A

Pressure: 29.86 "Hg

Humidity: 94%

Dew Point: 55 °F

Location of WegbergLocation

Past Weather in Wegberg — Graph

°F

Wegberg Temperature Yesterday

Maximum temperature yesterday: 63 °F (at 1:16 pm)
Minimum temperature yesterday: 57 °F (at 5:50 am)
Average temperature yesterday: 59 °F

High & Low Weather Summary for the Past Weeks

 TemperatureHumidityPressure
High88 °F (Jul 19, 11:50 am)100% (Jul 12, 12:39 pm)30.24 "Hg (Jul 12, 12:39 pm)
Low45 °F (Jul 13, 4:50 am)39% (Jul 10, 2:50 pm)29.71 "Hg (Jul 12, 11:50 am)
Average66 °F73%29.95 "Hg
* Reported Jul 10 3:19 am — Jul 25 3:50 am, Wegberg. Weather by CustomWeather, © 2017

Note: Actual official high and low records may vary slightly from our data, if they occured in-between our weather recording intervals... More about our weather records

Advertising

Wegberg Weather History for the Previous 24 Hours

Scroll right to see more
 ConditionsComfort  
Time TempWeatherWind HumidityBarometerVisibility
3:50 am
Tue, Jul 25
57 °FPassing clouds.8 mph94%29.86 "HgN/A
2:50 am57 °FPassing clouds.7 mph94%29.89 "HgN/A
1:50 am57 °FPassing clouds.8 mph94%29.89 "HgN/A
12:50 am57 °FClear.9 mph94%29.89 "Hg10 mi
11:50 pm
Mon, Jul 24
57 °FClear.5 mph94%29.86 "Hg10 mi
10:50 pm59 °FPassing clouds.6 mph88%29.86 "HgN/A
9:50 pm59 °FPassing clouds.7 mph88%29.86 "HgN/A
8:50 pm59 °FPassing clouds.7 mph88%29.86 "HgN/A
7:50 pm63 °FPassing clouds.5 mph77%29.83 "HgN/A
6:50 pm59 °FScattered clouds.5 mph88%29.83 "HgN/A
5:50 pm59 °FSprinkles. Partly sunny.12 mph88%29.83 "HgN/A
4:50 pm61 °FThundershowers. Partly sunny.5 mph77%29.83 "HgN/A
3:50 pm57 °FSprinkles. Broken clouds.3 mph82%29.83 "HgN/A
3:35 pm57 °FThundershowers. Partly sunny.2 mph82%29.83 "HgN/A
2:57 pm57 °FThunderstorms. Broken clouds.7 mph94%29.83 "Hg5 mi
2:35 pm59 °FThunderstorms. Broken clouds.17 mph82%29.80 "Hg2 mi
1:50 pm63 °FThunderstorms. Broken clouds.8 mph77%29.80 "HgN/A
1:16 pm63 °FSprinkles. Broken clouds.7 mph83%29.80 "HgN/A
12:50 pm59 °FScattered showers. Broken clouds.5 mph88%29.80 "HgN/A
12:34 pm59 °FSprinkles. Broken clouds.7 mph88%29.80 "HgN/A
12:07 pm61 °FThunderstorms. Broken clouds.9 mph88%29.80 "HgN/A
11:50 am61 °FRain showers. Broken clouds.5 mph88%29.80 "HgN/A
10:54 am59 °FPartly sunny.9 mph88%29.80 "HgN/A
10:50 am59 °FLots of rain. Partly sunny.12 mph88%29.80 "Hg4 mi
9:50 am59 °FBroken clouds.8 mph88%29.80 "HgN/A
8:50 am57 °FBroken clouds.6 mph94%29.80 "HgN/A
7:50 am57 °FPartly sunny.3 mph94%29.80 "HgN/A
7:05 am57 °FPartly sunny.3 mph94%29.83 "HgN/A
6:50 am57 °FLight rain. Partly sunny.3 mph94%29.83 "HgN/A
5:50 am57 °FRain. Partly sunny.2 mph94%29.83 "Hg6 mi
4:50 am59 °FLight rain. Passing clouds.3 mph88%29.83 "HgN/A
Weather by CustomWeather, © 2017

See weather overviewHow to use our weather pages